Voltar ao catálogo

COSMOS 1900 DEB

AtivoLEO
NORAD 43500·DEBRIS·🇷🇺 Russia

Lançado Dec 12, 1987 de Baikonur Cosmodrome

Loading…

Próximas Passagens (próximas 24 horas)

TLE

AtualizadoSource: Space-Track

Época: Sep 13, 2026, 04:10 UTC

1 43500U 87101E   26256.17395924  .00000353  00000-0  93711-4 0  9996
2 43500  66.0841  93.9151 0029058  10.7680 100.3407 14.60757818681426

Acompanhe COSMOS 1900 DEB em tempo real com AllMySat

Download on the App Store